| time (UTC) | temp C | wind direction | speed KPH | gust KPH | rain 1hr cm | rain 24hr cm | rain mn cm | humidity % | barometer mb |
| 20260508193131 | 10 | 338 | 8.0 | 17.7 | 0.00 | 1.96 | 0.00 | 75 | 1001.4 |
| 20260508191551 | 11 | 331 | 4.8 | 16.1 | 0.00 | 1.96 | 0.00 | 76 | 1001.4 |
| 20260508190053 | 11 | 358 | 4.8 | 14.5 | 0.00 | 1.96 | 0.00 | 76 | 1001.3 |
| 20260508184558 | 11 | 34 | 4.8 | 14.5 | 0.00 | 2.41 | 0.00 | 75 | 1001.2 |
| 20260508183108 | 11 | 327 | 4.8 | 14.5 | 0.00 | 2.41 | 0.00 | 73 | 1001.2 |
| 20260508181602 | 11 | 10 | 3.2 | 14.5 | 0.00 | 2.41 | 0.00 | 73 | 1001.4 |
| 20260508180047 | 12 | 346 | 6.4 | 14.5 | 0.00 | 2.41 | 0.00 | 74 | 1001.4 |
| 20260508174550 | 12 | 34 | 8.0 | 17.7 | 0.00 | 2.44 | 0.00 | 72 | 1001.3 |
| 20260508173044 | 12 | 30 | 3.2 | 16.1 | 0.00 | 2.44 | 0.00 | 73 | 1001.2 |
| 20260508171542 | 11 | 30 | 4.8 | 14.5 | 0.00 | 2.44 | 0.00 | 77 | 1001.7 |
| 20260508170039 | 11 | 342 | 4.8 | 12.9 | 0.00 | 2.44 | 0.00 | 78 | 1001.9 |
| 20260508164539 | 10 | 20 | 3.2 | 9.7 | 0.00 | 2.44 | 0.00 | 78 | 1001.8 |
| 20260508163035 | 10 | 20 | 3.2 | 9.7 | 0.00 | 2.44 | 0.00 | 80 | 1001.7 |
| 20260508161535 | 10 | 336 | 4.8 | 12.9 | 0.00 | 2.44 | 0.00 | 79 | 1001.7 |
| 20260508160034 | 10 | 4 | 1.6 | 12.9 | 0.00 | 2.44 | 0.00 | 78 | 1001.9 |
| 20260508154551 | 10 | 20 | 4.8 | 12.9 | 0.00 | 2.44 | 0.00 | 78 | 1001.7 |
| 20260508153032 | 10 | 338 | 4.8 | 11.3 | 0.00 | 2.44 | 0.00 | 81 | 1001.8 |
| 20260508151536 | 10 | 30 | 4.8 | 12.9 | 0.00 | 2.44 | 0.00 | 82 | 1001.6 |
| 20260508150036 | 10 | 341 | 6.4 | 16.1 | 0.00 | 2.44 | 0.00 | 82 | 1001.8 |
| 20260508144531 | 10 | 15 | 6.4 | 17.7 | 0.00 | 2.44 | 0.00 | 83 | 1001.9 |
| 20260508143030 | 10 | 333 | 4.8 | 17.7 | 0.00 | 2.44 | 0.00 | 84 | 1001.8 |
| 20260508141533 | 10 | 346 | 4.8 | 14.5 | 0.00 | 2.44 | 0.00 | 85 | 1002.3 |
| 20260508140028 | 10 | 20 | 4.8 | 16.1 | 0.00 | 2.44 | 0.00 | 86 | 1002.5 |
| 20260508134529 | 10 | 347 | 4.8 | 9.7 | 0.00 | 2.44 | 0.00 | 87 | 1002.6 |
| 20260508133043 | 10 | 2 | 4.8 | 12.9 | 0.00 | 2.44 | 0.00 | 88 | 1002.7 |
| 20260508131522 | 9 | 350 | 4.8 | 14.5 | 0.00 | 2.44 | 0.00 | 90 | 1002.6 |
| 20260508130022 | 9 | 327 | 6.4 | 17.7 | 0.00 | 2.44 | 0.00 | 91 | 1002.3 |
| 20260508124518 | 8 | 20 | 4.8 | 12.9 | 0.00 | 2.46 | 0.00 | 94 | 1002.2 |
| 20260508123026 | 8 | 30 | 1.6 | 8.0 | 0.00 | 2.46 | 0.00 | 97 | 1002.4 |
| 20260508121518 | 7 | 342 | 1.6 | 6.4 | 0.00 | 2.46 | 0.00 | 97 | 1002.2 |
| 20260508120014 | 7 | 351 | 3.2 | 8.0 | 0.00 | 2.46 | 0.00 | 99 | 1002.6 |
| 20260508114513 | 6 | 344 | 4.8 | 8.0 | 0.00 | 2.46 | 0.00 | 99 | 1002.8 |
| 20260508113018 | 5 | 349 | 3.2 | 6.4 | 0.00 | 2.46 | 0.00 | 99 | 1002.4 |
| 20260508111512 | 5 | 352 | 3.2 | 6.4 | 0.00 | 2.46 | 0.00 | 99 | 1002.6 |
| 20260508110012 | 5 | 354 | 1.6 | 4.8 | 0.00 | 2.46 | 0.00 | 99 | 1002.7 |
| 20260508104511 | 5 | 354 | 0.0 | 1.6 | 0.00 | 2.46 | 0.00 | 99 | 1003.0 |
| 20260508103013 | 4 | 354 | 0.0 | 0.0 | 0.00 | 2.46 | 0.00 | 99 | 1003.0 |
| 20260508101510 | 4 | 354 | 0.0 | 0.0 | 0.00 | 2.46 | 0.00 | 99 | 1002.9 |
| 20260508100011 | 4 | 354 | 0.0 | 0.0 | 0.00 | 2.46 | 0.00 | 99 | 1002.9 |
| 20260508094507 | 4 | 354 | 0.0 | 0.0 | 0.00 | 2.51 | 0.00 | 99 | 1002.4 |
| 20260508093010 | 4 | 354 | 0.0 | 0.0 | 0.00 | 2.51 | 0.00 | 99 | 1002.4 |
| 20260508091507 | 4 | 354 | 0.0 | 0.0 | 0.00 | 2.51 | 0.00 | 99 | 1002.3 |
| 20260508090006 | 4 | 354 | 0.0 | 0.0 | 0.00 | 2.51 | 0.00 | 99 | 1002.5 |
| 20260508084505 | 4 | 354 | 0.0 | 0.0 | 0.00 | 2.69 | 0.00 | 99 | 1002.6 |
| 20260508083005 | 4 | 354 | 3.2 | 6.4 | 0.00 | 2.69 | 0.00 | 99 | 1002.1 |
| 20260508081502 | 5 | 358 | 0.0 | 4.8 | 0.00 | 2.69 | 0.00 | 99 | 1001.8 |
| 20260508080100 | 5 | 358 | 0.0 | 3.2 | 0.00 | 2.69 | 0.00 | 99 | 1001.8 |
| 20260508074600 | 5 | 360 | 1.6 | 6.4 | 0.00 | 2.72 | 0.00 | 99 | 1002.0 |
| 20260508073110 | 5 | 356 | 1.6 | 6.4 | 0.00 | 2.72 | 0.00 | 99 | 1002.0 |
| 20260508071602 | 5 | 351 | 3.2 | 8.0 | 0.00 | 2.72 | 0.00 | 99 | 1002.0 |
| 20260508070053 | 5 | 14 | 0.0 | 3.2 | 0.00 | 2.72 | 0.00 | 98 | 1001.8 |
| 20260508064559 | 6 | 69 | 0.0 | 9.7 | 0.00 | 2.72 | 0.00 | 99 | 1001.7 |
| 20260508063054 | 6 | 356 | 0.0 | 4.8 | 0.00 | 2.72 | 0.00 | 99 | 1001.6 |
| 20260508061546 | 7 | 2 | 0.0 | 16.1 | 0.00 | 2.72 | 0.00 | 99 | 1001.8 |
| 20260508060059 | 7 | 20 | 3.2 | 12.9 | 0.00 | 2.72 | 0.00 | 99 | 1001.6 |
| 20260508054541 | 7 | 13 | 1.6 | 4.8 | 0.00 | 2.72 | 0.00 | 99 | 1001.5 |
| 20260508053039 | 7 | 10 | 0.0 | 0.0 | 0.00 | 2.72 | 0.00 | 99 | 1001.6 |
| 20260508051555 | 7 | 10 | 0.0 | 1.6 | 0.00 | 2.72 | 0.00 | 99 | 1001.2 |
| 20260508050038 | 7 | 10 | 0.0 | 1.6 | 0.00 | 2.72 | 0.00 | 99 | 1001.2 |
| 20260508044537 | 7 | 10 | 0.0 | 1.6 | 0.00 | 2.72 | 0.00 | 99 | 1001.5 |
| 20260508043033 | 7 | 10 | 0.0 | 4.8 | 0.00 | 2.72 | 0.00 | 99 | 1001.7 |
| 20260508041532 | 7 | 10 | 1.6 | 4.8 | 0.00 | 2.72 | 0.00 | 99 | 1001.6 |
| 20260508040029 | 7 | 9 | 1.6 | 4.8 | 0.00 | 2.72 | 0.00 | 99 | 1001.7 |
| 20260508034539 | 7 | 318 | 0.0 | 4.8 | 0.00 | 2.72 | 0.00 | 99 | 1001.9 |
| 20260508033023 | 8 | 318 | 0.0 | 1.6 | 0.00 | 2.72 | 0.00 | 99 | 1002.2 |
| 20260508031522 | 8 | 317 | 0.0 | 3.2 | 0.00 | 2.72 | 0.00 | 99 | 1002.0 |
| 20260508030020 | 8 | 317 | 1.6 | 3.2 | 0.00 | 2.72 | 0.00 | 99 | 1002.1 |
| 20260508024543 | 8 | 317 | 0.0 | 4.8 | 0.00 | 2.72 | 2.72 | 99 | 1002.0 |
| 20260508023017 | 8 | 315 | 1.6 | 6.4 | 0.00 | 2.72 | 2.72 | 98 | 1001.7 |
| 20260508021514 | 10 | 307 | 1.6 | 8.0 | 0.00 | 2.72 | 2.72 | 99 | 1001.8 |
| 20260508020013 | 10 | 285 | 0.0 | 6.4 | 0.00 | 2.72 | 2.72 | 99 | 1001.8 |
| 20260508014512 | 10 | 274 | 1.6 | 8.0 | 0.00 | 2.72 | 2.72 | 99 | 1001.9 |
| 20260508013014 | 10 | 294 | 1.6 | 6.4 | 0.00 | 2.72 | 2.72 | 99 | 1001.7 |
| 20260508011513 | 10 | 261 | 1.6 | 8.0 | 0.00 | 2.72 | 2.72 | 99 | 1001.7 |
| 20260508010012 | 10 | 186 | 3.2 | 11.3 | 0.00 | 2.72 | 2.72 | 99 | 1002.0 |
| 20260508004524 | 10 | 254 | 3.2 | 6.4 | 0.00 | 2.72 | 2.72 | 99 | 1001.9 |
| 20260508003009 | 10 | 229 | 1.6 | 9.7 | 0.00 | 2.72 | 2.72 | 99 | 1001.9 |
| 20260508001527 | 10 | 212 | 1.6 | 8.0 | 0.00 | 2.72 | 2.72 | 99 | 1002.1 |
| 20260508000009 | 10 | 230 | 3.2 | 8.0 | 0.00 | 2.72 | 2.72 | 99 | 1002.4 |
| 20260507234510 | 10 | 215 | 3.2 | 16.1 | 0.00 | 2.72 | 2.72 | 99 | 1002.2 |
| 20260507233008 | 10 | 156 | 4.8 | 12.9 | 0.00 | 2.72 | 2.72 | 99 | 1002.1 |
| 20260507231508 | 10 | 217 | 3.2 | 11.3 | 0.00 | 2.72 | 2.72 | 98 | 1002.4 |
| 20260507230008 | 10 | 188 | 6.4 | 14.5 | 0.00 | 2.72 | 2.72 | 98 | 1002.3 |
| 20260507224510 | 11 | 225 | 3.2 | 14.5 | 0.00 | 2.72 | 2.72 | 98 | 1002.7 |
| 20260507223006 | 11 | 190 | 4.8 | 17.7 | 0.00 | 2.72 | 2.72 | 99 | 1002.5 |
| 20260507221507 | 10 | 233 | 4.8 | 12.9 | 0.00 | 2.72 | 2.72 | 98 | 1002.9 |
| 20260507220005 | 10 | 237 | 4.8 | 14.5 | 0.03 | 2.72 | 2.72 | 99 | 1002.8 |
| 20260507214505 | 10 | 194 | 4.8 | 11.3 | 0.08 | 2.72 | 2.72 | 98 | 1002.8 |
| 20260507213005 | 10 | 265 | 4.8 | 16.1 | 0.23 | 2.72 | 2.72 | 98 | 1002.8 |
| 20260507211502 | 10 | 162 | 8.0 | 24.1 | 0.51 | 2.72 | 2.72 | 98 | 1001.7 |
| 20260507210111 | 10 | 136 | 11.3 | 20.9 | 0.69 | 2.69 | 2.69 | 98 | 1002.0 |
| 20260507204557 | 10 | 170 | 8.0 | 17.7 | 0.94 | 2.64 | 2.64 | 98 | 1003.0 |
| 20260507203117 | 11 | 164 | 8.0 | 24.1 | 1.17 | 2.49 | 2.49 | 98 | 1003.6 |
| 20260507201552 | 11 | 152 | 4.8 | 17.7 | 1.27 | 2.21 | 2.21 | 98 | 1003.9 |
| 20260507200050 | 10 | 149 | 6.4 | 14.5 | 1.24 | 2.03 | 2.03 | 97 | 1004.5 |
| 20260507194559 | 11 | 246 | 0.0 | 16.1 | 1.09 | 1.70 | 1.70 | 97 | 1004.8 |